[[{"header":{"parameterUnit":"m.s-1","parameterCategory":2,"la1":30.2992,"la2":30.254,"lo1":-89.0895,"lo2":-89.0443,"dy":0.0025,"dx":0.0025,"nx":19,"ny":19,"refTime":"2026-04-30T09:00:00:Z","depth":"0","parameterNumber":2,"parameterNumberName":"U-component_of_CURRENTS"},"data":[0,0,0,0.0796,0.0796,0.0739,0.0739,0.0671,0.0671,0,0,0,0,0,0,0,0,0,0,0,0.0797,0.0797,0.0796,0.0796,0.0739,0.0739,0.0671,0.0671,0,0,0,0,0,0,0,0,0,0,0,0.0797,0.0797,0.0796,0.0796,0.0739,0.0739,0.0672,0.0707,0,0,0,0,0,0,0,0,0,0,0.0758,0.0782,0.0797,0.0796,0.0796,0.074,0.0739,0.0708,0.0704,0.0707,0,0.0701,0,0.0706,0.0669,0.0669,0,0,0,0.0769,0.0785,0.0764,0.0796,0.0796,0.074,0.0757,0.0706,0.0702,0.0703,0.0701,0.0699,0.0705,0.0669,0.0669,0.0648,0.0648,0,0,0.0772,0.0791,0.0767,0.0762,0.0786,0.0759,0.0756,0.0703,0.0705,0.07,0.0697,0.0704,0.0669,0.0669,0.0648,0.0648,0,0,0,0.0799,0.0793,0.0772,0.0764,0.0765,0.0758,0.0754,0.0707,0.0698,0.0697,0.0703,0.0669,0.0668,0.0648,0.0648,0.0711,0,0,0,0.08,0.0811,0.0774,0.0785,0.0767,0.074,0.0759,0.0701,0.0696,0.0703,0.0669,0.0668,0.0648,0.0648,0.0709,0.0731,0,0,0,0.0799,0.0812,0.0804,0.0786,0.0775,0.0741,0.0728,0.0699,0.0701,0.0669,0.0668,0.0648,0.0648,0.0708,0.0729,0.079,0,0,0,0.0819,0.0794,0.0805,0.0792,0.0776,0.0756,0.0728,0.0725,0.0704,0.0669,0.0648,0.0648,0.0707,0.0727,0.0788,0.0939,0.0962,0,0,0.0792,0.0791,0.0785,0.0794,0.0805,0.0762,0.0755,0.0728,0.0699,0.0661,0.066,0.071,0.0728,0.0789,0.0936,0.096,0,0,0,0.078,0.078,0.0789,0.0799,0.0791,0.0791,0.0755,0.0745,0.0721,0.0691,0.0691,0.07,0.0738,0.0823,0.0841,0.0905,0.0648,0.0648,0.0648,0.0781,0.0782,0.0795,0.0803,0.0802,0.0803,0.0798,0.0766,0.0742,0.0748,0.0738,0.0806,0.0896,0.0912,0.0976,0.0725,0.0725,0.0725,0.0725,0.0776,0.0784,0.0806,0.0814,0.0831,0.082,0.0819,0.0816,0.0824,0.0778,0.0812,0.0867,0.0937,0.0997,0.0729,0.0729,0.0728,0.0728,0.0727,0.079,0.0789,0.0799,0.0822,0.0846,0.0854,0.0895,0.0882,0.0877,0.0902,0.1008,0.1009,0.1076,0.0931,0.0932,0.0932,0.0932,0.0933,0.0933,0.0794,0.0799,0.0821,0.0847,0.0871,0.0913,0.0947,0.0987,0.1068,0.1084,0.1086,0.1116,0.0869,0.0877,0.0939,0.0938,0.0937,0.0936,0.0936,0.0792,0.0805,0.0834,0.086,0.0921,0.0974,0.1033,0.1195,0.1248,0.1329,0.139,0.1191,0.1191,0.1176,0.1191,0.133,0.133,0.133,0.133,0.0803,0.0809,0.0853,0.0891,0.0946,0.0997,0.1145,0.13,0.1496,0.16,0.1585,0.1579,0.156,0.1577,0.1554,0.1574,0.1807,0.1808,0.1808,0.082,0.0833,0.0863,0.0895,0.0948,0.102,0.1151,0.1343,0.168,0.1826,0.1646,0.1626,0.1606,0.1571,0.1583,0.1545,0.1571,0,0]},{"header":{"parameterUnit":"m.s-1","parameterCategory":2,"la1":30.2992,"la2":30.254,"lo1":-89.0895,"lo2":-89.0443,"dy":0.0025,"dx":0.0025,"nx":19,"ny":19,"refTime":"2026-04-30T09:00:00:Z","depth":"0","parameterNumber":3,"parameterNumberName":"V-component_of_CURRENTS"},"data":[0,0,0,-0.0165,-0.0167,-0.0213,-0.0213,-0.0196,-0.0196,0,0,0,0,0,0,0,0,0,0,0,-0.0133,-0.0133,-0.0165,-0.0167,-0.0213,-0.0213,-0.0197,-0.0196,0,0,0,0,0,0,0,0,0,0,0,-0.0133,-0.0133,-0.0134,-0.0167,-0.0213,-0.0213,-0.0197,-0.0177,0,0,0,0,0,0,0,0,0,0,-0.014,-0.0133,-0.0133,-0.0134,-0.0168,-0.0213,-0.0213,-0.0177,-0.0178,-0.0159,0,-0.0167,0,-0.0194,-0.0195,-0.0195,0,0,0,-0.0152,-0.0132,-0.0144,-0.0134,-0.0168,-0.0213,-0.0188,-0.0178,-0.018,-0.0161,-0.0168,-0.0168,-0.0194,-0.0195,-0.0195,-0.0151,-0.015,0,0,-0.0149,-0.0141,-0.0143,-0.0145,-0.018,-0.0186,-0.0189,-0.018,-0.018,-0.0168,-0.0168,-0.0194,-0.0195,-0.0194,-0.0151,-0.015,0,0,0,-0.0152,-0.0139,-0.0151,-0.0144,-0.0166,-0.0188,-0.0192,-0.018,-0.0184,-0.0169,-0.0193,-0.0195,-0.0194,-0.0151,-0.0151,-0.013,0,0,0,-0.015,-0.0142,-0.015,-0.0145,-0.0167,-0.0187,-0.0192,-0.0184,-0.0185,-0.0194,-0.0195,-0.0194,-0.0152,-0.0151,-0.0131,-0.0089,0,0,0,-0.0131,-0.0141,-0.0145,-0.0145,-0.0174,-0.0188,-0.0192,-0.0185,-0.0201,-0.0195,-0.0194,-0.0152,-0.0151,-0.0132,-0.0092,-0.0054,0,0,0,-0.012,-0.013,-0.0145,-0.0154,-0.0174,-0.0158,-0.0192,-0.0181,-0.0171,-0.0194,-0.0151,-0.0151,-0.0133,-0.0094,-0.0056,0.0025,0.0041,0,0,-0.0126,-0.0131,-0.0132,-0.0148,-0.0125,-0.0151,-0.0131,-0.014,-0.0154,-0.0148,-0.0147,-0.0131,-0.0092,-0.0055,0.007,0.0085,0,0,0,-0.013,-0.0125,-0.0123,-0.0114,-0.0107,-0.0087,-0.0107,-0.0118,-0.0124,-0.0151,-0.0121,-0.0096,-0.0073,-0.0029,-0.0017,-0.009,-0.0147,-0.0147,-0.0147,-0.0096,-0.0093,-0.0071,-0.006,-0.0038,-0.0039,-0.0035,-0.005,-0.0083,-0.0084,-0.0073,-0.0017,0.003,0.004,-0.0037,-0.0084,-0.0084,-0.0084,-0.0084,-0.0068,-0.0046,-0.0018,-0.0003,0.0032,0.0061,0.0049,0.0013,0.0004,-0.0035,-0.0016,-0.0001,0.0055,-0.0032,-0.0082,-0.0082,-0.0082,-0.0083,-0.0083,-0.003,-0.0018,-0.0014,0.0041,0.0102,0.0115,0.0172,0.0118,0.0063,0.0065,0.0117,0.0117,0.0037,0.0068,0.0068,0.0068,0.0069,0.0069,0.0069,0.001,0.0018,0.0046,0.0089,0.0137,0.0207,0.0234,0.0247,0.0228,0.018,0.0181,0.0061,0.003,0.002,0.0074,0.0073,0.0073,0.0072,0.0072,0.005,0.005,0.0095,0.0128,0.023,0.0347,0.0364,0.0438,0.0413,0.0427,0.0225,0.0239,0.0249,0.024,0.0236,0.0343,0.0343,0.0343,0.0343,0.0087,0.0087,0.0157,0.022,0.0317,0.0414,0.058,0.0627,0.0494,0.0398,0.0292,0.0247,0.0239,0.0244,0.0235,0.0229,0.0331,0.0331,0.0331,0.0125,0.0141,0.0202,0.0256,0.0362,0.0511,0.0707,0.0824,0.0572,0.0317,0.0173,0.0173,0.0088,0.0081,0.0072,0.0064,0.0048,0,0]}],[{"header":{"parameterUnit":"m.s-1","parameterCategory":2,"la1":30.2992,"la2":30.254,"lo1":-89.0895,"lo2":-89.0443,"dy":0.0025,"dx":0.0025,"nx":19,"ny":19,"refTime":"2026-04-30T09:00:00:Z","depth":"2","parameterNumber":2,"parameterNumberName":"U-component_of_CURRENTS"},"data":[0,0,0,0.1073,0.1071,0.0939,0.0938,0.0902,0.0902,0,0,0,0,0,0,0,0,0,0,0,0.1061,0.106,0.1073,0.1071,0.0939,0.0938,0.0902,0.0902,0,0,0,0,0,0,0,0,0,0,0,0.1062,0.106,0.1058,0.107,0.0939,0.0938,0.0902,0.0962,0,0,0,0,0,0,0,0,0,0,0.1071,0.1063,0.1061,0.1058,0.107,0.0939,0.0938,0.0963,0.0958,0.1008,0,0.0952,0,0.0967,0.0906,0.0906,0,0,0,0.1044,0.1067,0.1034,0.1057,0.1069,0.094,0.0991,0.0959,0.0954,0.1003,0.0952,0.0951,0.0966,0.0906,0.0906,0.0921,0.0921,0,0,0.1051,0.1048,0.1036,0.1029,0.0993,0.0995,0.0987,0.0954,0.0935,0.0952,0.0951,0.0966,0.0906,0.0906,0.0921,0.0921,0,0,0,0.109,0.1053,0.1016,0.103,0.1017,0.0992,0.0983,0.0934,0.092,0.0951,0.0965,0.0906,0.0907,0.0921,0.0921,0.0939,0,0,0,0.1093,0.1078,0.1019,0.1017,0.1016,0.0964,0.0963,0.092,0.0919,0.0965,0.0906,0.0907,0.0921,0.0921,0.0939,0.0963,0,0,0,0.1075,0.1079,0.1048,0.1017,0.0979,0.0963,0.0945,0.0918,0.0931,0.0906,0.0908,0.0921,0.0921,0.0939,0.0962,0.1018,0,0,0,0.1098,0.1031,0.1046,0.099,0.098,0.0987,0.0945,0.0949,0.0933,0.0907,0.0921,0.0921,0.0939,0.0962,0.1017,0.1181,0.12,0,0,0.1037,0.1023,0.0997,0.101,0.1004,0.1005,0.099,0.0947,0.0939,0.0938,0.0936,0.0939,0.0962,0.1018,0.1155,0.1176,0,0,0,0.0997,0.0978,0.098,0.097,0.0989,0.0993,0.0978,0.0968,0.093,0.093,0.0925,0.0939,0.0974,0.1069,0.1085,0.0919,0.0919,0.0919,0.0919,0.0947,0.0957,0.0947,0.0961,0.0972,0.0992,0.0985,0.0965,0.0959,0.094,0.0942,0.0983,0.1082,0.1096,0.0921,0.0921,0.0921,0.0921,0.0921,0.0919,0.0921,0.0945,0.0943,0.0967,0.0975,0.0984,0.0967,0.0977,0.0944,0.0977,0.1069,0.1115,0.0922,0.0922,0.0921,0.0921,0.0921,0.0921,0.0919,0.092,0.0923,0.0942,0.0964,0.0979,0.1021,0.1011,0.1009,0.103,0.1162,0.1164,0.1028,0.1055,0.1055,0.1056,0.1056,0.1056,0.1056,0.0918,0.0921,0.0937,0.096,0.0981,0.1024,0.1062,0.1105,0.1191,0.1211,0.1213,0.1029,0.1025,0.1036,0.1062,0.1061,0.106,0.106,0.1059,0.091,0.0923,0.0945,0.0968,0.1025,0.1079,0.1141,0.1313,0.1369,0.1455,0.1328,0.1319,0.1343,0.1331,0.135,0.1456,0.1456,0.1456,0.1456,0.0917,0.0922,0.096,0.0993,0.1047,0.1101,0.124,0.1351,0.146,0.1474,0.1471,0.1448,0.1434,0.1458,0.1444,0.1462,0.1597,0.1596,0.1596,0.0929,0.0942,0.0967,0.0996,0.1048,0.1123,0.1229,0.1293,0.1428,0.1585,0.1331,0.1497,0.1458,0.1438,0.1469,0.1448,0.1475,0,0]},{"header":{"parameterUnit":"m.s-1","parameterCategory":2,"la1":30.2992,"la2":30.254,"lo1":-89.0895,"lo2":-89.0443,"dy":0.0025,"dx":0.0025,"nx":19,"ny":19,"refTime":"2026-04-30T09:00:00:Z","depth":"2","parameterNumber":3,"parameterNumberName":"V-component_of_CURRENTS"},"data":[0,0,0,-0.0233,-0.0234,-0.0265,-0.0265,-0.0252,-0.0252,0,0,0,0,0,0,0,0,0,0,0,-0.0195,-0.0195,-0.0233,-0.0234,-0.0265,-0.0265,-0.0252,-0.0252,0,0,0,0,0,0,0,0,0,0,0,-0.0195,-0.0195,-0.0195,-0.0234,-0.0265,-0.0265,-0.0252,-0.0238,0,0,0,0,0,0,0,0,0,0,-0.0212,-0.0201,-0.0195,-0.0195,-0.0235,-0.0266,-0.0265,-0.0237,-0.0238,-0.0228,0,-0.0225,0,-0.0256,-0.0251,-0.0251,0,0,0,-0.0218,-0.02,-0.0206,-0.0195,-0.0235,-0.0266,-0.0247,-0.0238,-0.024,-0.0229,-0.0225,-0.0226,-0.0256,-0.0251,-0.0251,-0.0213,-0.0213,0,0,-0.0216,-0.0204,-0.0205,-0.0207,-0.0233,-0.0246,-0.0248,-0.0239,-0.0236,-0.0225,-0.0227,-0.0256,-0.0251,-0.0251,-0.0214,-0.0213,0,0,0,-0.0222,-0.0203,-0.021,-0.0206,-0.0226,-0.0247,-0.0249,-0.0236,-0.0238,-0.0227,-0.0256,-0.0251,-0.0251,-0.0214,-0.0214,-0.0182,0,0,0,-0.022,-0.0208,-0.0209,-0.0203,-0.0227,-0.0244,-0.0246,-0.0237,-0.0239,-0.0256,-0.0251,-0.0251,-0.0215,-0.0214,-0.0183,-0.0143,0,0,0,-0.0196,-0.0207,-0.0206,-0.0202,-0.0227,-0.0245,-0.0246,-0.0238,-0.0257,-0.0251,-0.0251,-0.0215,-0.0214,-0.0185,-0.0147,-0.0109,0,0,0,-0.0188,-0.0189,-0.0205,-0.0204,-0.0226,-0.0217,-0.0246,-0.0236,-0.0225,-0.0251,-0.0214,-0.0214,-0.0185,-0.0149,-0.0111,-0.0045,-0.0029,0,0,-0.0188,-0.0188,-0.0186,-0.0202,-0.0175,-0.0212,-0.0191,-0.0192,-0.0211,-0.0212,-0.0211,-0.0183,-0.0147,-0.011,0.0003,0.0017,0,0,0,-0.0184,-0.0177,-0.0172,-0.016,-0.0158,-0.014,-0.0163,-0.0173,-0.0173,-0.0207,-0.0175,-0.0153,-0.013,-0.0095,-0.0083,-0.021,-0.021,-0.021,-0.021,-0.0145,-0.0142,-0.0116,-0.0104,-0.0084,-0.0089,-0.0084,-0.01,-0.0134,-0.0129,-0.0122,-0.0062,-0.0024,-0.0014,-0.0131,-0.0131,-0.0131,-0.0131,-0.013,-0.0116,-0.0092,-0.0063,-0.0045,-0.001,0.0014,0.0003,-0.0028,-0.0036,-0.0076,-0.0058,-0.0057,0.0001,-0.0128,-0.0128,-0.0129,-0.0129,-0.0129,-0.0129,-0.0078,-0.0066,-0.0059,-0.0004,0.0059,0.0072,0.0128,0.0078,0.0025,0.0029,0.0067,0.0067,-0.0031,0.0033,0.0033,0.0034,0.0034,0.0034,0.0035,-0.0043,-0.0032,-0.0004,0.0041,0.0091,0.0161,0.019,0.0203,0.0183,0.0135,0.0135,-0.0006,-0.0011,-0.0021,0.004,0.0039,0.0038,0.0038,0.0037,-0.0006,-0.0003,0.004,0.0075,0.0177,0.0285,0.0308,0.0376,0.0355,0.0365,0.0192,0.0187,0.019,0.0181,0.0176,0.0284,0.0284,0.0284,0.0284,0.0029,0.003,0.0097,0.0159,0.0252,0.0343,0.0473,0.0471,0.0404,0.0316,0.0314,0.0275,0.0265,0.0269,0.0257,0.0253,0.0381,0.0381,0.038,0.0064,0.0079,0.0138,0.019,0.0291,0.0426,0.0557,0.0539,0.04,0.0378,0.0266,0.0303,0.0239,0.0227,0.0224,0.0209,0.0197,0,0]}],[{"header":{"parameterUnit":"m.s-1","parameterCategory":2,"la1":30.2992,"la2":30.254,"lo1":-89.0895,"lo2":-89.0443,"dy":0.0025,"dx":0.0025,"nx":19,"ny":19,"refTime":"2026-04-30T09:00:00:Z","depth":"4","parameterNumber":2,"parameterNumberName":"U-component_of_CURRENTS"},"data":[0,0,0,0.0937,0.094,0.1088,0.1089,0.1244,0.1245,0,0,0,0,0,0,0,0,0,0,0,0.0894,0.0895,0.0937,0.094,0.1088,0.1089,0.1243,0.1245,0,0,0,0,0,0,0,0,0,0,0,0.0893,0.0894,0.0896,0.094,0.1088,0.1089,0.1243,0.1142,0,0,0,0,0,0,0,0,0,0,0.1003,0.0962,0.0894,0.0896,0.0941,0.1088,0.1089,0.1137,0.1148,0.1164,0,0.1193,0,0.1215,0.1254,0.1254,0,0,0,0.0948,0.0954,0.0994,0.0896,0.0942,0.1087,0.1024,0.1144,0.1156,0.1178,0.1195,0.1201,0.1218,0.1254,0.1255,0.1465,0.1466,0,0,0.094,0.092,0.0986,0.1002,0.0989,0.1019,0.1028,0.1152,0.1166,0.1196,0.1205,0.1221,0.1255,0.1256,0.1464,0.1465,0,0,0,0.0911,0.0914,0.0953,0.0995,0.1021,0.1023,0.1034,0.1161,0.1174,0.1207,0.1222,0.1256,0.1258,0.1462,0.1464,0.1484,0,0,0,0.0906,0.0897,0.0949,0.0938,0.1019,0.1097,0.104,0.1166,0.1181,0.1222,0.1256,0.1259,0.1461,0.1463,0.148,0.147,0,0,0,0.0885,0.0894,0.0914,0.0937,0.0997,0.1095,0.1117,0.117,0.1189,0.1254,0.1259,0.146,0.1463,0.1477,0.1466,0.151,0,0,0,0.0856,0.0879,0.0914,0.0929,0.0995,0.1056,0.1116,0.1204,0.1263,0.1257,0.1461,0.1464,0.1476,0.1463,0.1507,0.117,0,0,0,0.0861,0.088,0.088,0.0914,0.0958,0.1035,0.1121,0.1248,0.1318,0.1415,0.1421,0.1482,0.1466,0.1509,0.1358,0,0,0,0,0.0863,0.0875,0.0888,0.0924,0.0977,0.1097,0.1208,0.1275,0.1447,0.1367,0.154,0.153,0.1556,0.1355,0.1479,0.1479,0.1478,0.1478,0.1478,0.0837,0.0858,0.0872,0.0939,0.1004,0.1156,0.1252,0.1388,0.145,0.1568,0.159,0.1695,0.1489,0.1651,0.1652,0.1652,0.1652,0.1652,0.1652,0.083,0.0824,0.0881,0.0922,0.1044,0.1155,0.1353,0.1457,0.1628,0.1665,0.169,0.1445,0.1655,0.1655,0.1654,0.1654,0.1654,0.1653,0.1653,0.0791,0.0796,0.0837,0.0911,0.1029,0.1203,0.131,0.1512,0.1658,0.1707,0.1543,0.1721,0.1668,0.1764,0.1764,0.1764,0.1765,0.1765,0.1765,0.0745,0.0779,0.0803,0.09,0.0958,0.1087,0.1343,0.141,0.1605,0.1534,0.1752,0.1732,0.1729,0.1677,0.1768,0.1767,0.1767,0.1766,0.1766,0.0705,0.0723,0.0746,0.0784,0.0877,0.093,0.1174,0.1248,0.1321,0.1286,0.1431,0.1447,0.1405,0.141,0.1344,0.1339,0.1335,0.1331,0,0.0659,0.0672,0.0692,0.0716,0.0724,0.0838,0.0819,0.091,0.1091,0.1079,0.1325,0.149,0.1499,0.1452,0.145,0.1372,0,0,0,0.063,0.0633,0.0635,0.0659,0.0668,0.0672,0.0801,0.0807,0.1064,0.0973,0.123,0.1256,0.1432,0.1776,0.1751,0.1746,0.1661,0,0]},{"header":{"parameterUnit":"m.s-1","parameterCategory":2,"la1":30.2992,"la2":30.254,"lo1":-89.0895,"lo2":-89.0443,"dy":0.0025,"dx":0.0025,"nx":19,"ny":19,"refTime":"2026-04-30T09:00:00:Z","depth":"4","parameterNumber":3,"parameterNumberName":"V-component_of_CURRENTS"},"data":[0,0,0,-0.001,-0.0011,-0.0023,-0.0023,-0.0065,-0.0065,0,0,0,0,0,0,0,0,0,0,0,-0.0001,-0.0001,-0.001,-0.0011,-0.0023,-0.0023,-0.0064,-0.0065,0,0,0,0,0,0,0,0,0,0,0,-0.0,-0.0001,-0.0001,-0.0011,-0.0023,-0.0023,-0.0064,-0.0046,0,0,0,0,0,0,0,0,0,0,-0.003,-0.0016,-0.0001,-0.0001,-0.0011,-0.0023,-0.0023,-0.0045,-0.0047,-0.007,0,-0.0075,0,-0.008,-0.0069,-0.007,0,0,0,-0.0,-0.0014,-0.0026,-0.0001,-0.0012,-0.0023,-0.0015,-0.0046,-0.0049,-0.0073,-0.0076,-0.0077,-0.0081,-0.007,-0.007,-0.0111,-0.0111,0,0,0.0,0.0005,-0.0024,-0.0028,-0.002,-0.0014,-0.0015,-0.0047,-0.0048,-0.0076,-0.0078,-0.0081,-0.007,-0.0071,-0.0111,-0.0111,0,0,0,-0.0005,0.0006,-0.0004,-0.0026,-0.0031,-0.0015,-0.0016,-0.0046,-0.0052,-0.0079,-0.0082,-0.0071,-0.0072,-0.0111,-0.0111,-0.0092,0,0,0,-0.0004,0.0002,-0.0004,0.0,-0.003,-0.0035,-0.0014,-0.005,-0.0054,-0.0082,-0.0071,-0.0072,-0.0111,-0.0111,-0.0093,-0.0089,0,0,0,0.0001,0.0002,-0.0002,0.0,-0.0011,-0.0034,-0.0041,-0.005,-0.0057,-0.007,-0.0072,-0.0112,-0.0111,-0.0093,-0.009,-0.0081,0,0,0,0.0012,0.0002,-0.0002,-0.0004,-0.0011,-0.0006,-0.004,-0.0038,-0.0044,-0.0071,-0.0111,-0.0111,-0.0093,-0.009,-0.0082,-0.0046,0,0,0,0.0004,0.0001,0.0003,-0.0001,0.0011,-0.0003,0.0006,-0.0021,-0.0054,-0.0101,-0.0102,-0.0092,-0.009,-0.0081,-0.0041,0,0,0,0,0.0005,0.0003,0.001,0.0014,0.0019,0.0019,0.0003,-0.0012,-0.0052,-0.0061,-0.0096,-0.0095,-0.009,-0.0071,-0.0111,-0.0111,-0.0111,-0.0111,-0.0111,-0.0002,0.0008,0.0019,0.003,0.0034,0.0034,0.0029,-0.0002,-0.0031,-0.0047,-0.0082,-0.0066,-0.0045,-0.0082,-0.0082,-0.0082,-0.0082,-0.0082,-0.0082,-0.0012,-0.0006,0.0016,0.0024,0.0037,0.0036,0.002,0.0003,-0.0029,-0.0056,-0.0052,-0.0055,-0.008,-0.0081,-0.0081,-0.0081,-0.0081,-0.0081,-0.0081,-0.0022,-0.0018,-0.001,0.0006,0.002,0.0022,0.0026,-0.0006,-0.0028,-0.0028,-0.0022,-0.0056,-0.0055,-0.0037,-0.0036,-0.0036,-0.0036,-0.0036,-0.0036,-0.0043,-0.0033,-0.0026,-0.0008,0.0008,0.002,0.0016,0.002,-0.0009,-0.0,-0.0036,-0.0051,-0.0053,-0.0052,-0.0035,-0.0036,-0.0036,-0.0036,-0.0036,-0.0057,-0.0058,-0.005,-0.0032,0.0015,0.0037,0.0039,0.0057,0.0062,0.007,0.0021,0.0018,0.0013,0.001,0.0012,0.0049,0.005,0.005,0,-0.0066,-0.0065,-0.0055,-0.0028,0.0017,0.0048,0.009,0.0105,0.0078,0.0066,0.0051,-0.0007,-0.0008,-0.0016,-0.0018,-0.0017,0,0,0,-0.0067,-0.0066,-0.0055,-0.0033,0.002,0.0075,0.0103,0.0107,0.008,0.0116,0.0064,0.006,0.0037,-0.0033,-0.0048,-0.005,-0.005,0,0]}]]